GFSWCAN_850_rhum_078.txt.gz
RH
92 97 96 77 94 92 83 100 99 100 98 65 57 46 34 34 37 40 38 43 46 70 76 67 61 57 53 51 58 66 81 83 86 87 85 80 67 57 49 43 55 66 78 80 74 88 89 42 45 51 57 45 47 52
89 92 84 88 86 98 100 100 100 100 90 60 54 39 36 36 37 40 39 45 39 55 84 61 59 62 61 70 60 76 86 87 93 93 93 84 66 59 52 62 51 66 58 69 59 68 42 41 46 46 49 52 60 62
89 86 60 90 97 100 100 100 98 100 77 61 46 37 37 37 42 36 37 45 34 65 73 71 80 66 56 58 67 69 82 88 96 91 86 80 73 78 66 60 52 48 48 62 55 47 44 42 45 55 60 64 66 65
84 71 63 92 90 96 96 100 99 99 85 60 43 38 37 37 39 32 31 32 43 58 70 85 87 75 63 55 57 75 77 87 82 84 74 82 75 79 79 80 75 61 55 55 57 48 47 54 60 60 60 58 56 65
84 54 75 92 94 100 83 100 100 99 81 57 41 37 38 39 33 32 31 42 47 57 80 86 84 83 69 58 67 77 79 78 76 70 74 78 69 73 67 70 77 54 62 71 73 61 64 60 58 54 61 65 72 80
74 56 77 91 99 97 100 96 100 94 72 56 41 35 38 39 36 32 34 40 47 48 65 86 92 93 87 74 79 83 78 77 81 74 69 62 65 72 83 74 47 48 56 54 52 56 65 63 70 69 76 77 78 82
58 73 98 98 90 88 100 100 99 98 62 48 45 40 42 45 38 37 47 45 48 52 62 93 92 91 92 89 90 87 88 85 81 77 74 70 68 67 76 82 51 48 50 60 70 76 74 78 88 86 94 93 78 83
54 81 99 97 100 96 99 100 100 90 57 49 51 42 43 46 42 37 43 55 48 47 64 92 96 93 87 91 90 90 88 85 80 78 77 75 74 73 89 59 49 48 64 70 74 81 89 91 98 90 97 92 94 94
51 96 98 100 100 100 100 100 98 93 62 52 53 54 49 47 40 49 54 52 46 57 85 88 88 89 85 97 95 95 85 84 91 79 71 74 75 90 72 52 41 61 72 76 83 85 88 92 97 98 99 99 100 99
55 99 97 100 99 100 100 100 98 88 60 56 58 44 49 50 50 55 51 47 50 58 72 90 75 91 86 74 89 85 87 80 82 76 82 78 81 61 56 53 58 77 77 76 86 91 98 99 99 99 100 99 100 100
70 99 98 100 98 100 100 99 99 79 64 57 58 97 81 64 56 58 74 82 80 91 77 82 76 91 83 80 82 81 82 88 78 88 83 71 91 69 66 70 75 74 74 80 89 100 98 100 100 100 99 100 99 99
74 98 100 100 100 100 100 99 97 75 62 46 48 80 77 68 74 85 93 90 92 89 87 84 80 78 90 77 69 81 91 87 79 84 81 86 70 63 72 75 76 81 85 88 92 100 99 99 100 99 98 96 97 98
88 100 100 100 100 100 98 100 89 53 44 41 56 70 76 91 93 81 90 93 98 87 84 83 95 86 90 87 73 81 91 82 86 90 78 84 76 75 76 79 84 90 93 96 96 97 89 98 96 96 95 97 93 94
99 98 100 100 100 99 100 98 68 54 48 46 56 80 87 95 89 89 90 90 92 91 87 80 77 79 78 84 74 83 69 83 80 92 88 79 76 80 78 74 91 93 86 86 83 84 84 87 89 90 95 94 96 94
100 100 100 100 100 100 98 93 66 51 45 48 61 80 92 96 96 100 98 97 95 90 79 81 79 74 91 92 89 92 91 87 83 86 93 80 76 74 76 69 64 74 81 72 66 67 65 64 84 97 96 97 98 93
100 100 100 100 100 99 99 92 69 62 52 55 71 90 88 92 99 100 99 99 91 76 68 70 92 93 92 93 96 93 89 88 86 94 86 78 73 73 67 53 58 73 73 68 67 56 46 44 82 99 100 98 99 99
100 100 100 100 100 100 99 84 72 78 80 82 95 80 88 87 96 98 98 91 74 56 96 90 88 86 92 95 91 85 89 91 81 65 69 61 72 67 58 54 57 65 64 54 48 42 46 50 55 94 100 99 100 99
99 100 100 100 100 99 100 86 83 85 98 100 94 82 91 89 94 94 92 83 59 62 69 89 74 96 94 92 92 87 68 70 63 49 42 45 46 48 55 55 56 59 56 51 41 43 55 56 54 64 75 93 90 88
100 99 99 99 98 91 92 84 82 99 100 91 87 86 92 95 92 84 88 76 58 47 50 69 90 95 92 67 75 72 68 61 56 55 49 48 49 49 48 54 60 61 60 56 46 37 48 46 47 74 88 91 89 86
100 99 99 100 85 57 85 96 84 86 97 95 85 86 91 93 99 98 88 69 56 49 70 93 84 66 56 50 46 53 50 47 48 49 48 45 49 55 52 51 50 56 64 62 56 32 38 44 45 56 65 68 68 66
100 100 100 99 87 82 97 97 98 97 93 95 99 97 98 99 100 100 98 79 70 86 94 60 56 54 50 48 50 52 51 51 51 54 53 50 49 59 59 57 55 56 56 60 59 30 24 29 34 35 39 44 47 49
99 99 99 99 95 97 94 96 92 95 89 99 89 95 99 99 100 100 100 96 95 83 70 64 56 55 55 56 56 54 50 46 43 41 40 41 38 38 41 48 58 53 54 59 56 26 22 23 27 26 23 23 23 28
99 98 99 99 93 94 97 97 96 97 96 96 90 92 96 97 99 97 99 92 87 80 65 63 62 62 62 59 56 46 32 28 24 24 26 30 35 39 40 44 50 52 52 51 59 32 20 20 22 23 24 26 28 29
98 97 96 96 91 96 96 96 96 95 92 91 91 92 95 96 96 100 98 88 71 61 54 53 56 58 53 42 26 22 21 21 20 19 20 19 21 30 40 41 43 46 49 52 54 39 23 23 23 25 27 30 35 36
88 97 95 96 96 96 96 96 96 96 95 91 88 96 96 91 98 99 95 70 64 53 49 46 48 45 23 24 25 26 26 26 26 23 20 19 20 20 26 34 41 50 61 61 54 35 24 26 29 30 33 37 38 38
94 96 96 96 96 93 97 96 96 95 91 94 94 94 92 97 96 87 89 56 50 45 39 30 23 25 29 33 36 36 34 31 27 22 23 24 28 30 28 29 33 37 47 62 59 48 37 31 32 35 38 41 42 41
96 96 96 95 94 91 94 93 87 88 92 92 94 96 94 91 88 77 56 52 45 43 28 27 30 35 38 40 44 45 39 30 27 28 31 36 37 38 38 38 38 44 45 46 58 60 42 36 38 40 42 43 43 42
97 97 95 96 95 90 94 92 90 90 93 83 82 92 84 80 80 57 53 49 38 32 32 33 36 37 41 49 48 38 33 35 39 41 43 45 45 45 47 50 52 51 49 49 48 49 53 51 52 50 48 46 45 45
96 96 96 96 93 85 86 90 92 79 77 74 90 94 83 62 57 45 44 44 42 38 38 39 46 55 57 46 40 42 46 50 50 49 47 47 49 51 55 56 58 61 62 61 61 61 60 59 59 59 56 55 53 54
96 92 90 90 91 98 99 90 86 80 77 73 69 64 60 55 51 47 49 52 54 57 60 63 64 57 45 46 51 56 57 55 52 52 53 54 57 60 61 60 61 66 68 69 70 71 73 75 74 74 76 80 81 77
92 85 88 93 99 100 95 87 82 77 75 73 71 70 68 66 64 62 61 62 63 60 55 49 47 50 57 61 60 60 57 50 50 53 54 56 58 60 60 61 63 65 68 73 75 75 75 77 79 79 76 74 73 73
90 94 92 99 100 100 95 89 90 87 87 87 86 86 83 76 66 64 57 46 42 41 44 47 53 59 60 70 65 51 48 52 54 56 59 62 62 63 64 65 64 66 69 70 72 74 78 80 81 84 84 83 82 79
91 85 87 88 89 90 79 71 71 72 72 76 77 74 72 68 59 51 46 42 47 53 59 63 66 69 66 52 50 54 58 61 64 68 70 72 74 75 76 77 81 86 90 89 86 87 89 92 93 93 94 92 88 87

GFSWCAN_850_rhum_081.txt.gz
RH
83 83 87 94 83 57 99 96 93 98 99 100 87 60 51 44 39 40 39 48 39 68 75 60 55 55 53 59 83 74 80 83 87 83 75 85 83 67 55 67 76 76 81 87 86 94 88 46 44 52 59 60 59 60
84 83 90 87 62 83 93 96 94 98 100 99 87 58 44 46 43 44 42 52 41 48 81 70 68 64 58 57 67 79 81 92 92 95 93 89 77 72 65 70 55 70 66 78 71 73 48 46 52 58 56 64 66 65
87 89 84 71 56 83 99 100 100 99 100 97 72 47 42 43 43 40 46 47 38 71 77 59 67 63 66 62 66 74 81 82 86 85 86 92 78 88 75 73 63 56 56 66 58 53 51 60 61 60 60 59 56 56
84 78 78 48 72 83 97 100 100 98 100 87 59 47 48 48 44 40 44 39 40 49 82 89 86 66 59 60 62 60 64 79 85 79 74 90 88 83 86 80 80 68 58 64 65 69 67 62 60 57 57 58 60 63
80 75 66 45 88 94 100 94 99 99 97 74 55 52 48 52 47 44 42 41 46 51 92 89 81 80 65 66 66 72 72 73 70 69 83 84 79 79 80 78 85 65 69 76 81 63 66 64 63 66 68 72 74 77
75 64 45 52 91 97 100 86 99 100 92 75 58 61 46 46 38 44 47 45 52 39 67 97 91 91 80 72 64 64 70 68 73 72 78 66 65 74 89 88 58 59 57 56 59 56 63 71 73 76 73 81 86 82
68 54 36 69 99 99 100 96 99 100 93 73 58 60 58 45 46 44 44 52 49 51 62 94 90 93 89 84 84 79 71 78 74 76 79 77 72 65 86 90 56 49 50 58 70 75 74 78 84 88 90 93 93 88
55 40 39 91 100 97 100 99 100 100 82 64 64 61 52 56 49 43 58 60 54 53 64 89 98 92 90 92 88 87 84 77 79 83 76 79 77 77 93 71 51 49 51 68 78 78 82 86 91 98 99 100 100 99
41 29 60 99 99 95 100 100 100 98 79 63 59 57 65 57 44 47 54 48 52 52 88 86 88 93 93 92 94 91 78 95 87 87 75 76 84 93 74 62 55 50 60 72 75 79 86 95 94 99 99 97 98 98
33 34 93 100 100 100 100 99 99 95 66 62 58 51 60 57 51 52 49 44 45 56 75 92 78 96 86 75 81 83 84 90 87 82 76 77 83 63 61 55 45 49 74 79 77 83 92 98 96 99 97 99 100 100
26 44 99 100 100 100 99 100 98 87 62 56 53 85 78 63 55 51 59 70 73 89 79 86 81 92 80 85 88 77 90 84 88 91 88 89 92 74 60 59 57 65 74 76 81 87 99 99 99 100 100 100 97 97
26 54 99 100 96 99 99 98 97 67 58 46 45 78 79 77 71 79 96 87 91 90 90 87 83 84 87 68 74 72 85 74 82 85 81 88 78 60 64 68 75 73 77 82 86 89 97 100 100 100 100 100 99 94
31 78 99 100 99 98 100 99 94 70 45 47 60 86 91 94 90 73 85 93 98 89 88 84 96 87 88 76 68 67 76 88 84 83 84 86 74 71 70 72 75 79 82 84 88 88 87 79 98 100 99 100 99 97
32 92 100 100 100 100 100 100 96 65 42 55 63 92 82 85 88 83 83 90 85 84 84 75 86 80 83 79 71 81 72 76 83 89 93 83 75 73 72 75 72 74 66 74 78 76 72 73 63 86 100 100 100 99
49 99 100 99 100 100 99 98 97 60 46 49 61 67 98 85 100 100 96 92 90 85 71 76 79 75 97 92 94 84 87 84 85 87 90 79 73 73 74 69 55 56 66 69 67 66 67 58 57 48 80 99 100 100
77 100 100 100 99 99 100 99 84 52 46 53 74 91 95 95 100 100 98 99 87 70 55 62 94 93 95 95 96 98 90 95 85 92 82 78 75 70 71 70 58 58 62 65 66 60 50 44 48 57 68 87 100 100
94 100 100 100 100 100 100 98 68 50 84 82 93 81 89 85 95 98 96 92 72 53 91 88 81 81 92 96 97 91 91 87 90 81 74 54 57 68 68 63 58 55 56 58 55 51 42 43 55 58 62 68 98 99
99 100 100 100 99 99 99 98 81 85 98 100 88 88 98 95 96 97 92 81 61 56 69 80 78 93 92 90 94 88 73 72 64 58 37 38 40 43 45 47 56 66 65 62 62 57 50 38 48 47 53 69 83 91
100 99 100 99 97 95 99 95 75 98 100 91 95 97 100 100 92 88 87 71 59 52 58 67 85 92 89 79 73 74 68 69 64 46 41 42 46 48 47 50 53 56 60 65 67 66 63 38 42 43 53 79 82 84
100 100 100 100 94 87 97 97 79 78 97 95 94 95 99 99 99 89 77 66 50 48 56 85 70 58 57 52 49 55 55 49 44 44 43 45 47 49 49 54 56 58 59 59 59 65 65 43 36 47 52 56 57 55
99 99 99 98 99 98 97 96 95 91 92 96 96 98 100 100 98 90 79 64 54 67 86 55 55 52 45 42 44 46 48 49 48 50 50 46 39 36 36 41 49 55 61 64 62 57 64 48 31 37 36 38 37 35
98 99 99 99 98 96 93 95 86 88 88 95 93 92 94 98 100 97 92 81 87 74 62 57 49 52 49 48 52 55 55 53 48 42 34 30 26 28 32 38 41 42 49 54 57 58 61 38 28 30 28 23 22 24
99 99 98 98 93 86 97 100 92 97 92 97 91 92 96 97 98 98 100 91 82 76 73 72 64 60 59 58 59 58 47 31 23 20 19 19 18 22 28 36 42 43 41 40 53 58 61 57 29 22 23 24 26 30
99 99 98 97 94 96 97 96 96 95 96 95 91 94 95 93 97 98 96 86 71 73 80 75 74 71 67 62 48 28 22 23 24 24 23 20 18 20 21 24 29 36 44 46 52 57 61 60 35 24 24 25 27 32
87 97 96 96 97 96 96 97 97 93 96 93 88 94 94 92 96 96 89 68 64 58 57 57 55 51 34 24 25 27 29 31 33 34 28 24 21 20 24 28 32 34 35 39 52 58 58 58 53 35 32 31 31 37
94 96 96 95 97 90 96 96 95 95 94 95 94 94 91 93 90 80 84 56 52 47 46 45 45 26 29 33 37 40 42 44 45 37 30 30 32 34 35 36 36 38 39 41 42 41 45 57 54 47 36 37 40 43
95 96 97 96 93 91 96 96 94 92 93 91 93 95 90 85 82 73 59 52 47 40 30 27 30 37 38 38 41 47 48 44 36 36 38 40 42 43 44 46 48 48 50 51 51 50 49 46 50 52 47 49 50 51
96 97 93 97 97 88 95 96 96 94 93 83 81 88 80 75 76 58 54 49 43 35 28 31 38 38 36 42 52 50 41 39 40 44 48 48 47 46 47 51 57 61 63 62 61 60 62 63 61 57 60 61 58 56
96 96 92 96 96 94 96 94 94 84 79 73 85 88 81 64 55 47 50 46 36 33 34 35 36 41 56 61 54 46 47 50 52 51 49 47 48 50 56 58 60 62 61 61 64 68 70 70 71 72 72 70 66 65
96 97 96 96 95 95 97 96 92 85 76 72 68 65 62 61 52 49 49 48 48 48 51 57 63 66 61 53 52 57 59 56 51 48 49 49 50 50 51 52 53 55 57 58 59 61 67 76 80 85 87 86 87 86
96 96 94 95 95 97 98 90 83 77 73 72 69 64 67 65 63 59 60 62 63 64 60 55 49 48 51 56 59 55 44 41 43 50 54 57 60 62 64 66 67 69 70 71 73 75 76 74 77 82 82 83 85 90
90 96 92 94 96 98 93 87 89 86 87 85 84 83 77 70 67 67 58 46 42 39 42 50 57 61 60 56 45 43 45 50 56 60 65 67 68 69 70 71 77 84 86 86 88 89 92 95 96 96 97 96 95 95
86 88 89 89 91 90 79 70 70 72 71 76 75 72 69 64 56 52 45 40 46 56 60 62 62 60 59 60 60 56 55 61 66 69 70 74 78 79 81 90 97 92 90 92 91 93 96 97 98 99 100 100 98 95

GFSWCAN_850_rhum_084.txt.gz
RH
70 80 85 89 86 77 55 69 93 89 100 96 100 100 91 86 64 60 48 45 39 70 86 66 59 57 61 68 88 77 76 76 85 81 82 86 87 74 72 73 82 84 88 93 89 93 90 49 46 51 53 63 62 60
80 87 86 88 64 65 54 100 97 95 100 98 100 99 87 77 61 58 49 51 39 51 89 76 71 65 63 64 76 84 79 88 80 93 91 91 83 79 69 85 63 71 68 77 78 77 52 51 52 56 53 61 64 63
83 84 84 64 59 41 88 93 90 98 92 99 100 84 70 62 61 53 54 49 39 67 68 65 71 69 70 67 71 72 80 82 84 79 84 93 79 87 78 76 68 60 60 69 61 58 64 62 63 61 60 58 57 58
79 82 72 68 46 51 96 99 100 98 99 100 73 66 68 56 54 48 50 44 39 46 81 91 72 66 70 65 62 57 61 74 78 75 79 94 87 87 88 80 81 68 61 69 72 76 68 66 63 60 59 60 60 64
76 76 66 64 33 75 100 100 100 98 100 95 77 63 60 55 49 50 52 41 37 44 90 90 77 78 74 66 66 69 71 76 68 69 86 88 86 82 86 82 87 70 72 77 78 67 70 69 69 70 71 71 74 81
74 72 56 49 30 95 100 96 100 99 100 66 54 60 56 48 50 50 43 49 50 39 66 95 88 87 76 68 70 71 70 65 67 68 80 71 67 78 89 89 66 64 62 59 62 58 62 70 74 76 74 78 88 91
62 64 42 36 42 99 100 93 100 100 96 64 53 54 56 54 55 52 48 54 47 55 62 93 86 91 83 72 70 65 62 67 63 75 82 78 73 68 88 91 61 54 50 54 57 65 75 80 78 83 84 95 95 97
51 53 37 29 49 100 100 99 98 100 96 84 68 60 54 67 56 59 67 55 62 61 69 90 97 92 90 88 89 83 73 71 77 83 79 80 80 80 90 70 58 52 60 66 74 77 77 83 90 92 98 98 96 99
43 45 39 26 64 99 100 100 100 99 97 84 72 64 50 52 46 61 59 55 61 60 84 84 93 97 96 96 92 84 82 96 84 88 83 78 84 91 67 57 58 54 52 69 78 80 79 87 95 98 98 97 99 99
36 42 43 24 40 96 100 100 100 98 72 76 71 69 65 49 51 54 50 47 52 64 78 86 83 94 85 88 81 81 87 93 93 86 79 81 92 65 59 59 54 54 53 73 75 77 85 89 98 98 98 98 97 100
32 45 35 24 68 95 100 98 100 93 70 64 52 61 67 54 52 52 56 63 71 89 85 87 80 93 82 88 94 76 91 86 94 87 90 96 94 76 56 59 49 50 55 72 70 77 84 92 98 97 97 98 97 98
36 46 38 86 82 99 98 100 99 85 61 48 43 73 56 70 72 80 90 86 88 87 95 91 86 82 85 70 78 87 88 81 92 85 80 92 77 58 62 59 58 62 70 70 76 82 87 86 93 100 99 99 97 99
48 47 90 100 100 100 100 100 98 64 48 42 51 70 85 92 87 84 80 88 99 93 91 93 99 85 79 68 70 82 81 88 84 85 84 86 65 70 67 65 72 72 72 76 79 82 81 78 72 65 59 66 96 100
64 50 96 100 100 100 100 99 94 58 47 41 59 93 85 92 90 80 79 87 76 80 87 76 96 87 76 82 71 85 77 83 79 88 91 84 58 69 71 72 71 69 71 72 65 68 67 64 62 60 60 56 65 98
80 48 95 100 100 100 100 99 86 61 46 44 48 66 97 74 98 98 95 89 90 83 67 78 84 80 97 84 92 82 83 82 83 87 88 64 67 70 70 71 70 56 49 52 58 58 58 61 56 45 48 59 67 80
61 65 99 100 100 100 100 97 90 54 41 55 75 95 100 94 100 100 93 94 87 64 50 56 96 93 99 94 98 100 90 93 82 91 75 72 71 70 72 72 66 56 54 56 60 62 63 54 48 41 46 55 68 82
68 93 99 100 100 100 100 98 98 64 68 80 93 81 81 82 97 98 96 87 68 46 89 87 72 70 94 99 97 90 91 86 60 80 77 73 68 66 70 72 69 62 58 58 60 62 62 57 54 41 41 51 58 72
74 86 100 100 99 100 99 99 99 90 99 100 88 95 96 98 100 96 87 77 61 54 60 74 81 94 91 81 90 87 68 76 73 72 46 47 45 42 44 45 48 54 58 63 68 71 69 68 62 55 41 47 54 74
78 96 100 99 97 97 99 98 96 96 99 97 100 100 100 100 95 91 84 69 50 50 58 63 82 88 82 77 71 66 67 68 64 49 42 43 44 46 47 45 46 51 54 54 59 61 61 63 65 63 40 46 52 67
82 99 99 100 99 94 98 98 73 78 96 95 100 100 100 98 94 88 75 57 51 42 50 77 63 52 54 52 52 49 57 61 59 48 42 43 46 47 45 45 44 47 53 57 61 62 59 57 58 64 38 43 49 47
100 99 100 99 100 98 97 95 90 86 95 97 100 100 100 96 87 80 71 57 47 55 83 45 46 51 47 48 51 46 44 43 43 45 46 42 39 33 30 31 32 34 36 39 46 52 62 60 60 63 34 34 37 37
99 99 99 99 96 97 95 92 83 85 90 96 88 92 93 97 96 84 83 68 67 62 54 48 48 48 44 46 46 48 49 49 49 47 40 28 21 20 23 25 28 33 38 40 43 43 45 51 67 56 30 31 33 26
99 99 97 96 96 95 97 98 95 88 90 96 88 94 98 97 96 95 89 81 72 70 66 57 53 56 52 51 53 56 55 50 35 23 20 20 19 18 19 20 22 21 21 29 39 45 46 50 57 60 39 26 27 26
99 98 98 97 96 96 97 98 96 94 95 97 93 99 97 96 94 90 94 80 68 68 75 76 73 66 63 63 62 57 36 22 23 27 30 30 26 22 23 24 25 26 25 25 27 31 51 60 62 61 57 28 27 28
98 97 97 96 97 95 96 98 99 93 98 95 92 96 96 94 93 96 90 69 64 62 69 72 73 70 69 60 44 24 26 30 36 39 40 37 30 26 28 31 34 34 34 35 38 39 38 39 46 59 63 53 31 30
94 96 96 96 97 90 95 98 95 96 94 95 95 96 94 92 87 82 84 55 52 51 51 50 51 46 34 26 30 37 42 46 48 47 41 36 34 31 32 35 38 42 46 50 52 52 52 52 50 47 51 55 54 50
94 98 97 96 89 90 95 93 87 91 95 95 94 95 93 90 85 77 60 53 48 45 44 49 40 27 32 39 41 46 50 50 44 40 36 37 41 44 45 46 48 50 53 59 62 60 59 59 59 60 60 58 58 58
98 95 95 98 96 87 96 96 96 96 96 91 87 93 85 78 80 66 58 50 41 39 35 30 38 41 38 37 44 54 54 47 42 42 45 47 49 50 50 51 55 59 59 60 62 63 63 63 64 69 72 72 69 68
97 96 86 99 94 94 96 96 96 96 87 83 89 87 83 70 62 58 56 46 38 30 30 34 38 38 40 54 60 58 52 47 49 48 47 45 44 46 49 53 55 59 61 60 61 62 66 68 69 73 76 76 78 81
97 97 95 95 95 95 96 97 96 93 84 79 74 70 66 64 60 56 46 42 36 33 35 37 42 54 63 63 54 47 51 49 43 40 41 42 47 52 59 63 65 66 68 69 71 73 75 79 81 84 84 85 86 87
97 96 95 95 95 95 96 96 95 84 76 74 64 61 68 61 59 55 50 47 48 50 57 62 64 55 44 50 52 48 46 48 50 48 52 59 65 67 69 70 74 77 79 80 81 83 86 85 85 86 87 90 91 94
95 96 95 95 95 95 96 95 90 82 82 75 80 76 74 70 70 68 65 65 63 57 49 42 49 55 55 58 61 62 65 57 55 59 64 66 66 69 70 74 77 79 80 83 85 87 89 89 90 90 93 94 93 94
95 95 95 95 95 95 91 70 70 71 70 75 73 70 68 63 61 54 48 43 41 48 56 59 63 67 70 70 72 71 60 60 62 64 67 70 74 75 78 78 76 79 81 84 87 91 91 90 92 94 94 95 95 96

GFSWCAN_850_rhum_090.txt.gz
RH
68 97 88 55 40 39 33 75 94 85 93 93 96 100 100 100 93 76 56 44 53 80 94 78 70 74 76 74 88 82 76 73 79 82 78 87 83 84 82 77 80 80 91 97 91 93 88 54 49 49 51 67 65 64
63 94 82 43 40 37 42 100 90 83 84 81 92 99 99 98 94 64 50 55 60 61 88 84 83 77 73 70 74 84 74 80 71 91 90 90 86 83 81 86 74 82 76 84 81 77 58 61 57 61 64 64 67 65
75 87 66 36 39 32 58 97 97 98 82 91 94 99 100 96 78 56 51 49 54 71 74 71 77 80 81 75 70 67 76 74 71 67 83 89 75 79 82 81 74 68 68 76 68 64 65 67 66 63 63 61 62 65
75 84 63 37 41 30 70 91 99 91 94 98 100 99 99 95 68 55 48 47 50 54 77 83 76 76 75 73 66 62 56 63 66 68 79 93 84 88 83 73 78 72 72 76 74 73 72 67 64 62 63 63 64 64
71 80 72 34 37 34 84 98 100 100 100 100 97 99 98 99 82 62 53 44 41 38 84 77 74 80 79 67 57 60 66 65 66 70 83 85 91 87 92 87 90 76 76 78 76 59 62 64 63 65 67 67 67 65
73 81 82 33 38 56 84 99 97 100 100 100 94 95 98 90 78 65 58 46 40 42 48 94 77 79 78 78 75 76 72 64 61 67 84 81 78 80 89 88 65 66 63 57 58 60 62 63 67 70 69 66 65 70
78 83 95 36 32 75 96 100 100 100 100 100 89 80 68 78 69 63 60 54 42 41 45 94 92 75 72 69 69 65 62 59 58 75 80 76 78 78 87 88 52 60 64 62 59 62 69 67 64 65 69 72 78 84
81 86 91 49 32 93 97 97 100 100 97 81 76 64 64 72 68 69 72 57 58 50 55 96 96 82 74 71 70 61 58 60 68 81 83 80 80 78 83 65 57 62 63 62 63 63 57 58 69 76 79 84 86 93
76 91 87 86 34 91 100 97 100 100 85 71 65 73 70 63 62 68 71 72 62 55 78 85 94 93 87 89 82 77 73 86 82 86 84 76 82 86 61 53 56 60 59 57 65 68 72 73 75 79 85 91 93 98
74 90 91 90 45 69 100 98 100 100 86 66 68 71 57 51 62 64 67 65 61 76 73 92 85 96 88 91 94 85 91 93 94 84 88 93 89 58 46 46 42 55 55 55 71 83 78 76 76 82 84 89 100 99
84 88 94 93 62 46 99 100 99 100 82 69 66 68 61 67 66 57 64 70 76 93 84 87 84 92 89 90 95 82 95 96 96 87 88 97 96 78 58 49 45 52 54 52 60 70 69 70 74 79 81 74 74 73
92 90 94 97 83 61 71 100 99 96 89 75 74 66 69 60 68 71 85 86 92 79 98 92 86 77 83 75 87 94 91 91 90 88 92 97 78 57 63 53 52 52 54 57 60 71 71 73 76 74 69 63 58 57
92 88 93 94 94 76 74 100 99 95 100 94 74 69 78 81 76 73 75 87 99 99 95 96 98 82 83 72 92 87 88 92 85 86 88 86 61 58 61 56 54 55 56 54 61 70 71 74 74 68 62 59 59 52
91 87 85 88 92 80 79 84 100 100 99 100 99 88 89 93 87 80 77 84 68 83 93 89 99 84 76 85 86 86 80 89 91 97 83 73 57 62 62 57 51 52 53 65 70 71 69 65 64 62 57 57 55 47
88 89 93 97 94 78 73 85 100 100 99 99 93 83 92 71 90 89 80 85 88 83 74 84 89 80 97 92 87 91 91 97 87 78 81 52 51 63 60 58 58 64 69 70 66 54 52 56 60 58 58 58 57 56
89 98 99 100 99 74 70 83 100 100 99 94 78 85 96 88 98 100 94 92 86 74 55 59 97 96 98 94 96 93 85 83 73 90 55 60 55 62 60 62 68 70 71 58 55 57 56 58 64 65 65 61 65 64
99 100 95 71 58 56 82 100 98 99 99 99 89 77 71 84 82 97 86 81 81 63 83 84 60 59 92 100 97 88 86 80 53 53 71 61 57 61 66 69 71 71 68 68 61 54 55 60 64 64 64 62 72 65
100 97 84 46 78 99 100 99 99 100 98 98 93 80 82 89 97 91 82 74 68 55 54 62 79 98 85 66 83 84 66 62 57 83 75 73 73 72 71 68 61 49 43 42 42 43 48 54 56 59 63 60 58 60
100 98 74 92 96 98 99 99 99 97 96 98 96 100 95 99 95 85 76 74 65 50 44 64 75 81 74 73 72 58 60 64 84 82 79 73 68 56 45 43 43 42 40 40 39 40 42 47 50 51 54 55 57 59
100 99 78 89 100 99 98 98 98 96 99 96 100 100 100 98 96 88 87 66 54 45 54 74 55 41 36 30 33 34 46 58 68 71 64 59 50 47 45 44 38 28 26 28 30 30 31 34 42 45 46 51 56 54
99 100 94 99 100 99 98 97 98 96 96 96 100 95 100 99 94 90 80 65 49 44 79 37 32 34 40 32 32 38 52 60 60 46 41 45 47 46 43 27 22 19 19 18 19 22 25 25 29 37 43 49 53 58
99 99 100 100 99 98 97 97 92 98 93 97 95 97 98 97 84 71 71 56 50 37 37 36 34 39 44 37 34 49 56 61 53 45 42 44 44 33 19 16 17 18 19 20 21 23 25 28 30 32 33 34 41 52
100 99 98 97 97 97 96 97 95 97 96 97 91 95 96 98 89 80 77 62 58 44 36 36 38 44 47 53 49 54 54 46 44 46 44 31 20 21 27 28 29 26 25 27 30 33 35 36 40 43 45 46 46 44
99 97 96 97 95 96 96 96 97 96 96 96 94 95 95 97 97 93 92 81 62 50 44 38 38 50 59 52 46 46 46 47 47 31 22 28 34 36 37 36 34 32 33 34 38 42 46 50 50 52 54 54 55 56
97 98 97 96 97 95 96 96 96 97 96 96 94 95 96 97 96 97 90 74 70 59 56 51 48 53 46 48 50 51 52 42 23 31 37 44 46 44 37 35 36 36 37 41 45 47 48 51 53 51 52 54 56 59
95 96 95 96 96 91 94 98 96 96 95 96 96 96 95 96 98 89 84 60 68 65 46 56 51 56 54 50 50 57 42 26 36 46 47 45 42 38 36 38 41 42 46 49 49 48 47 46 48 52 55 58 59 59
95 96 98 97 92 88 95 88 84 92 93 94 95 96 97 96 96 91 65 78 70 54 53 50 50 53 54 58 60 34 33 46 49 48 48 46 42 39 40 42 43 43 44 47 49 53 58 64 67 69 72 73 74 76
96 95 96 98 93 91 92 93 93 94 97 91 87 96 94 94 91 78 66 61 55 52 56 65 72 70 65 44 30 42 48 49 51 51 48 43 42 41 40 41 43 46 51 58 63 66 70 72 75 79 82 83 84 86
96 95 87 99 96 95 99 96 97 94 89 84 94 98 96 89 82 77 69 63 71 60 56 51 45 36 34 44 45 46 51 54 49 39 39 40 44 47 51 51 56 60 62 64 68 72 75 76 80 85 85 87 87 88
98 97 95 94 94 98 99 99 100 99 94 87 88 92 91 95 94 88 79 81 75 63 43 36 36 41 39 38 44 53 50 41 41 43 49 51 51 51 53 56 59 62 64 65 64 64 68 72 75 77 77 78 81 82
97 92 94 93 98 97 98 100 100 98 94 97 99 91 96 95 96 94 86 77 58 46 45 43 44 47 44 56 50 41 42 46 51 54 52 48 50 53 56 56 57 58 59 62 64 68 70 74 79 81 82 85 89 94
95 94 94 96 97 95 96 93 96 95 95 95 95 96 96 95 94 85 75 64 57 50 44 41 43 56 51 45 47 49 49 52 53 47 48 51 52 52 54 55 55 56 59 61 63 67 72 76 81 84 85 87 90 92
95 95 91 94 96 96 95 96 96 96 95 95 95 95 95 84 83 69 62 59 54 52 59 64 55 50 52 53 53 54 55 49 47 50 50 49 50 50 51 55 58 60 62 64 68 72 75 77 79 83 86 88 89 91